This is the latest recevied weather packets stored in our database for station/object KC8JWT. If no packets are shown the sender has not sent any weather packets the latest 10 day(s).
| Time | Temp. | Humidity | Pressure | Rain* | Wind** | Luminosity | Snow |
|---|---|---|---|---|---|---|---|
| 1777939762 | 20.56° C | 66% | 1007.8 hPa | 0 mm | - | 10 W/m² | - |
| 1777939460 | 20.56° C | 65% | 1007.7 hPa | 0 mm | - | 14 W/m² | - |
| 1777939156 | 21.11° C | 64% | 1007.8 hPa | 0 mm | - | 21 W/m² | - |
| 1777938853 | 21.11° C | 63% | 1008.1 hPa | 0 mm | - | 24 W/m² | - |
| 1777938549 | 21.67° C | 63% | 1008.1 hPa | 0 mm | - | 28 W/m² | - |
| 1777938247 | 22.22° C | 62% | 1008.3 hPa | 0 mm | - | 31 W/m² | - |
| 1777937943 | 22.78° C | 60% | 1007.9 hPa | 0 mm | - | 32 W/m² | - |
| 1777937639 | 23.33° C | 59% | 1007.9 hPa | 0 mm | - | 39 W/m² | - |
| 1777937336 | 23.89° C | 58% | 1008.1 hPa | 0 mm | - | 49 W/m² | - |
| 1777937033 | 23.89° C | 57% | 1008 hPa | 0 mm | - | 56 W/m² | - |
| 1777936730 | 23.89° C | 57% | 1008 hPa | 0 mm | - | 84 W/m² | - |
| 1777936426 | 23.89° C | 58% | 1008 hPa | 0 mm | - | 101 W/m² | - |
| 1777936123 | 23.89° C | 57% | 1008.3 hPa | 0 mm | - | 75 W/m² | - |
| 1777935820 | 23.89° C | 58% | 1008.2 hPa | 0 mm | - | 116 W/m² | - |
| 1777935519 | 23.89° C | 57% | 1008.5 hPa | 0 mm | - | 160 W/m² | - |
| 1777935215 | 23.89° C | 57% | 1008.6 hPa | 0 mm | - | 170 W/m² | - |
| 1777934913 | 23.89° C | 57% | 1008.4 hPa | 0 mm | - | 193 W/m² | - |
| 1777934609 | 23.89° C | 58% | 1008.7 hPa | 0 mm | - | 226 W/m² | - |
| 1777934306 | 23.89° C | 59% | 1008.7 hPa | 0 mm | - | 211 W/m² | - |
| 1777934002 | 23.89° C | 58% | 1008.5 hPa | 0 mm | - | 170 W/m² | - |
| 1777933698 | 23.33° C | 58% | 1008.7 hPa | 0 mm | - | 260 W/m² | - |
| 1777933395 | 23.33° C | 60% | 1008.6 hPa | 0 mm | - | 271 W/m² | - |
| 1777933094 | 22.78° C | 60% | 1008.6 hPa | 0 mm | - | 294 W/m² | - |
| 1777932790 | 22.22° C | 61% | 1008.8 hPa | 0 mm | - | 202 W/m² | - |
| 1777932487 | 22.22° C | 61% | 1009.1 hPa | 0 mm | - | 156 W/m² | - |
* Rain latest hour (hover to see other rain measurements)
** Current wind speed in m/s (hover to see current wind gust speed)